Location: Passau
(48.5830°N, 13.4830°E)
Time: 00:14:31
(UTC+02:00)

N. Korean satellite - Pass Details

Date: 02 October 2021
Orbit: 450 x 495 km, 97.3° (Epoch: 21 October)

Event Time Altitude Azimuth Distance (km) Brightness Sun altitude
Rises 05:22:05 0° 30° (NNE) 2,552 10.9 -18.0°
Reaches altitude 10° 05:24:55 10° 56° (NE) 1,675 10.4 -17.6°
Maximum altitude 05:26:59 15° 91° (E) 1,416 10.0 -17.2°
Drops below altitude 10° 05:29:03 10° 126° (SE) 1,679 9.8 -16.9°
Sets 05:31:54 0° 151° (SSE) 2,560 10.4 -16.4°
